| time (UTC) | temp F | wind direction | speed MPH | gust MPH | rain 1hr in | rain 24hr in | rain mn in | humidity % | barometer mb |
| 20260831205850 | 79 | 214 | 2.0 | 7.0 | 0.00 | 0.00 | 0.00 | 53 | 969.4 |
| 20260831204911 | 79 | 232 | 2.0 | 7.0 | 0.00 | 0.00 | 0.00 | 53 | 969.4 |
| 20260831202803 | 79 | 198 | 3.0 | 8.0 | 0.00 | 0.00 | 0.00 | 56 | 969.5 |
| 20260831201806 | 79 | 244 | 2.0 | 8.0 | 0.00 | 0.00 | 0.00 | 56 | 969.5 |
| 20260831200822 | 79 | 226 | 2.0 | 8.0 | 0.00 | 0.00 | 0.00 | 53 | 969.5 |
| 20260831195800 | 79 | 181 | 2.0 | 7.0 | 0.00 | 0.00 | 0.00 | 55 | 969.5 |
| 20260831194750 | 79 | 236 | 2.0 | 9.0 | 0.00 | 0.00 | 0.00 | 56 | 969.7 |
| 20260831193742 | 79 | 196 | 2.0 | 8.0 | 0.00 | 0.00 | 0.00 | 55 | 969.7 |
| 20260831192733 | 79 | 239 | 1.0 | 9.0 | 0.00 | 0.00 | 0.00 | 58 | 969.7 |
| 20260831191743 | 79 | 210 | 2.0 | 9.0 | 0.00 | 0.00 | 0.00 | 59 | 969.8 |
| 20260831190727 | 80 | 238 | 1.0 | 7.0 | 0.00 | 0.00 | 0.00 | 60 | 969.8 |
| 20260831185749 | 79 | 208 | 1.0 | 5.0 | 0.00 | 0.00 | 0.00 | 61 | 969.7 |
| 20260831184718 | 79 | 193 | 1.0 | 6.0 | 0.00 | 0.00 | 0.00 | 62 | 969.8 |
| 20260831183712 | 77 | 197 | 1.0 | 6.0 | 0.00 | 0.00 | 0.00 | 64 | 969.9 |
| 20260831182737 | 77 | 202 | 2.0 | 5.0 | 0.00 | 0.00 | 0.00 | 65 | 969.9 |
| 20260831180536 | 77 | 160 | 1.0 | 4.0 | 0.00 | 0.00 | 0.00 | 65 | 969.9 |
| 20260831175557 | 77 | 180 | 0.0 | 5.0 | 0.00 | 0.00 | 0.00 | 66 | 970.0 |
| 20260831174601 | 76 | 217 | 1.0 | 5.0 | 0.00 | 0.00 | 0.00 | 67 | 970.0 |
| 20260831173605 | 76 | 196 | 1.0 | 5.0 | 0.00 | 0.00 | 0.00 | 69 | 970.0 |
| 20260831172616 | 74 | 215 | 1.0 | 5.0 | 0.00 | 0.00 | 0.00 | 70 | 969.9 |
| 20260831171605 | 74 | 216 | 1.0 | 4.0 | 0.00 | 0.00 | 0.00 | 69 | 969.9 |
| 20260831170619 | 74 | 221 | 0.0 | 3.0 | 0.00 | 0.00 | 0.00 | 69 | 969.9 |
| 20260831165557 | 73 | 218 | 1.0 | 4.0 | 0.00 | 0.00 | 0.00 | 71 | 969.8 |
| 20260831164526 | 73 | 167 | 0.0 | 5.0 | 0.00 | 0.00 | 0.00 | 72 | 969.7 |
| 20260831163531 | 72 | 96 | 0.0 | 5.0 | 0.00 | 0.00 | 0.00 | 74 | 969.6 |
| 20260831162545 | 72 | 202 | 0.0 | 6.0 | 0.00 | 0.00 | 0.00 | 75 | 969.6 |
| 20260831161546 | 71 | 225 | 0.0 | 3.0 | 0.00 | 0.00 | 0.00 | 77 | 969.5 |
| 20260831160547 | 70 | 225 | 0.0 | 0.0 | 0.00 | 0.00 | 0.00 | 79 | 969.5 |
| 20260831155601 | 69 | 221 | 0.0 | 2.0 | 0.00 | 0.00 | 0.00 | 80 | 969.5 |
| 20260831153508 | 66 | 200 | 0.0 | 1.0 | 0.00 | 0.00 | 0.00 | 85 | 969.4 |
| 20260831152444 | 66 | 200 | 0.0 | 1.0 | 0.00 | 0.00 | 0.00 | 85 | 969.3 |
| 20260831151442 | 65 | 200 | 0.0 | 0.0 | 0.00 | 0.00 | 0.00 | 86 | 969.3 |
| 20260831150444 | 65 | 200 | 0.0 | 0.0 | 0.00 | 0.00 | 0.00 | 87 | 969.3 |
| 20260831144315 | 64 | 0 | 0.0 | 0.0 | 0.00 | 0.00 | 0.00 | 87 | 969.2 |
| 20260831143248 | 63 | 0 | 0.0 | 0.0 | 0.00 | 0.00 | 0.00 | 87 | 969.1 |
| 20260831142243 | 63 | 199 | 0.0 | 0.0 | 0.00 | 0.00 | 0.00 | 88 | 968.9 |
| 20260831141211 | 63 | 0 | 0.0 | 0.0 | 0.00 | 0.00 | 0.00 | 89 | 968.8 |
| 20260831140222 | 63 | 0 | 0.0 | 0.0 | 0.00 | 0.00 | 0.00 | 90 | 968.6 |
| 20260831135213 | 63 | 0 | 0.0 | 0.0 | 0.00 | 0.00 | 0.00 | 90 | 968.7 |
| 20260831134206 | 63 | 0 | 0.0 | 0.0 | 0.00 | 0.00 | 0.00 | 91 | 968.5 |
| 20260831132130 | 64 | 0 | 0.0 | 0.0 | 0.00 | 0.00 | 0.00 | 90 | 968.3 |
| 20260831130009 | 64 | 0 | 0.0 | 0.0 | 0.00 | 0.00 | 0.00 | 89 | 968.3 |
| 20260831125000 | 64 | 0 | 0.0 | 0.0 | 0.00 | 0.00 | 0.00 | 89 | 968.3 |
| 20260831123933 | 64 | 0 | 0.0 | 0.0 | 0.00 | 0.00 | 0.00 | 86 | 968.3 |
| 20260831122941 | 63 | 0 | 0.0 | 0.0 | 0.00 | 0.00 | 0.00 | 85 | 968.2 |
| 20260831121948 | 63 | 0 | 0.0 | 0.0 | 0.00 | 0.00 | 0.00 | 82 | 968.3 |
| 20260831120934 | 63 | 0 | 0.0 | 0.0 | 0.00 | 0.00 | 0.00 | 83 | 968.2 |
| 20260831115942 | 62 | 0 | 0.0 | 0.0 | 0.00 | 0.00 | 0.00 | 83 | 968.2 |
| 20260831114936 | 63 | 0 | 0.0 | 0.0 | 0.00 | 0.00 | 0.00 | 86 | 968.1 |
| 20260831113939 | 63 | 0 | 0.0 | 0.0 | 0.00 | 0.00 | 0.00 | 89 | 968.0 |
| 20260831112938 | 63 | 0 | 0.0 | 0.0 | 0.00 | 0.00 | 0.00 | 89 | 968.1 |
| 20260831111953 | 63 | 0 | 0.0 | 0.0 | 0.00 | 0.00 | 0.00 | 89 | 968.2 |
| 20260831110947 | 63 | 0 | 0.0 | 0.0 | 0.00 | 0.00 | 0.00 | 88 | 968.2 |
| 20260831105957 | 64 | 0 | 0.0 | 0.0 | 0.00 | 0.00 | 0.00 | 88 | 968.2 |
| 20260831104925 | 64 | 0 | 0.0 | 0.0 | 0.00 | 0.00 | 0.00 | 87 | 968.3 |
| 20260831103940 | 64 | 0 | 0.0 | 0.0 | 0.00 | 0.00 | 0.00 | 87 | 968.2 |
| 20260831102957 | 64 | 0 | 0.0 | 0.0 | 0.00 | 0.00 | 0.00 | 87 | 968.3 |
| 20260831101942 | 64 | 0 | 0.0 | 2.0 | 0.00 | 0.00 | 0.00 | 87 | 968.3 |
| 20260831100911 | 64 | 0 | 0.0 | 0.0 | 0.00 | 0.00 | 0.00 | 87 | 968.4 |
| 20260831095913 | 64 | 0 | 0.0 | 0.0 | 0.00 | 0.00 | 0.00 | 87 | 968.4 |
| 20260831094935 | 64 | 195 | 0.0 | 0.0 | 0.00 | 0.00 | 0.00 | 86 | 968.3 |
| 20260831093928 | 64 | 195 | 0.0 | 0.0 | 0.00 | 0.00 | 0.00 | 86 | 968.3 |
| 20260831092932 | 64 | 195 | 0.0 | 2.0 | 0.00 | 0.00 | 0.00 | 87 | 968.3 |
| 20260831091930 | 64 | 194 | 0.0 | 1.0 | 0.00 | 0.00 | 0.00 | 87 | 968.1 |
| 20260831090945 | 64 | 194 | 0.0 | 1.0 | 0.00 | 0.00 | 0.00 | 87 | 968.2 |
| 20260831085926 | 64 | 194 | 0.0 | 1.0 | 0.00 | 0.00 | 0.00 | 87 | 968.2 |
| 20260831084903 | 64 | 194 | 0.0 | 1.0 | 0.00 | 0.00 | 0.00 | 87 | 968.4 |
| 20260831082753 | 65 | 194 | 0.0 | 0.0 | 0.00 | 0.00 | 0.00 | 87 | 968.4 |
| 20260831081800 | 65 | 194 | 0.0 | 0.0 | 0.00 | 0.00 | 0.00 | 87 | 968.4 |
| 20260831080821 | 65 | 194 | 0.0 | 0.0 | 0.00 | 0.00 | 0.00 | 86 | 968.3 |
| 20260831075834 | 65 | 0 | 0.0 | 0.0 | 0.00 | 0.00 | 0.00 | 86 | 968.3 |
| 20260831074858 | 66 | 194 | 0.0 | 0.0 | 0.00 | 0.00 | 0.00 | 85 | 968.3 |
| 20260831072649 | 66 | 194 | 0.0 | 0.0 | 0.00 | 0.00 | 0.00 | 85 | 968.0 |
| 20260831071641 | 66 | 194 | 0.0 | 0.0 | 0.00 | 0.00 | 0.00 | 85 | 967.8 |
| 20260831070613 | 66 | 194 | 0.0 | 0.0 | 0.00 | 0.00 | 0.00 | 85 | 967.9 |
| 20260831065607 | 66 | 194 | 0.0 | 0.0 | 0.00 | 0.00 | 0.00 | 85 | 968.0 |
| 20260831063435 | 66 | 194 | 0.0 | 0.0 | 0.00 | 0.00 | 0.00 | 83 | 967.9 |
| 20260831062455 | 67 | 194 | 0.0 | 0.0 | 0.00 | 0.00 | 0.00 | 83 | 967.9 |
| 20260831061430 | 67 | 194 | 0.0 | 0.0 | 0.00 | 0.00 | 0.00 | 82 | 968.1 |
| 20260831060422 | 67 | 194 | 0.0 | 0.0 | 0.00 | 0.00 | 0.00 | 82 | 968.1 |
| 20260831055419 | 67 | 194 | 0.0 | 0.0 | 0.00 | 0.00 | 0.00 | 82 | 968.0 |
| 20260831054421 | 67 | 194 | 0.0 | 0.0 | 0.00 | 0.00 | 0.00 | 82 | 968.0 |
| 20260831053352 | 67 | 194 | 0.0 | 0.0 | 0.00 | 0.00 | 0.00 | 81 | 968.0 |
| 20260831052404 | 68 | 194 | 0.0 | 0.0 | 0.00 | 0.00 | 0.00 | 81 | 968.1 |
| 20260831051417 | 68 | 194 | 0.0 | 0.0 | 0.00 | 0.00 | 0.00 | 80 | 968.0 |
| 20260831050431 | 68 | 194 | 0.0 | 0.0 | 0.00 | 0.00 | 0.00 | 80 | 968.0 |
| 20260831045452 | 69 | 194 | 0.0 | 0.0 | 0.00 | 0.00 | 0.00 | 79 | 968.0 |
| 20260831044500 | 69 | 194 | 0.0 | 0.0 | 0.00 | 0.00 | 0.00 | 78 | 967.9 |
| 20260831043501 | 69 | 194 | 0.0 | 0.0 | 0.00 | 0.00 | 0.00 | 77 | 967.8 |
| 20260831042506 | 69 | 194 | 0.0 | 0.0 | 0.00 | 0.00 | 0.00 | 75 | 967.9 |
| 20260831041512 | 70 | 194 | 0.0 | 0.0 | 0.00 | 0.00 | 0.00 | 75 | 967.8 |
| 20260831035429 | 70 | 194 | 0.0 | 0.0 | 0.00 | 0.00 | 0.00 | 70 | 967.6 |
| 20260831034453 | 70 | 194 | 0.0 | 0.0 | 0.00 | 0.00 | 0.00 | 69 | 967.4 |
| 20260831033440 | 71 | 194 | 0.0 | 0.0 | 0.00 | 0.00 | 0.00 | 69 | 967.3 |
| 20260831032456 | 71 | 194 | 0.0 | 0.0 | 0.00 | 0.00 | 0.00 | 68 | 967.2 |
| 20260831031450 | 72 | 194 | 0.0 | 0.0 | 0.00 | 0.00 | 0.00 | 63 | 967.0 |
| 20260831030425 | 72 | 194 | 0.0 | 0.0 | 0.00 | 0.00 | 0.00 | 59 | 967.0 |
| 20260831025427 | 72 | 194 | 0.0 | 0.0 | 0.00 | 0.00 | 0.00 | 58 | 966.9 |
| 20260831024431 | 72 | 194 | 0.0 | 1.0 | 0.00 | 0.00 | 0.00 | 58 | 966.9 |
| 20260831023455 | 73 | 193 | 0.0 | 2.0 | 0.00 | 0.00 | 0.00 | 58 | 966.8 |
| 20260831022438 | 73 | 192 | 0.0 | 1.0 | 0.00 | 0.00 | 0.00 | 59 | 966.8 |
| 20260831021501 | 74 | 220 | 0.0 | 3.0 | 0.00 | 0.00 | 0.00 | 59 | 966.7 |
| 20260831020453 | 74 | 205 | 0.0 | 4.0 | 0.00 | 0.00 | 0.00 | 58 | 966.7 |
| 20260831015459 | 75 | 219 | 1.0 | 4.0 | 0.00 | 0.00 | 0.00 | 58 | 966.6 |
| 20260831014459 | 76 | 219 | 0.0 | 5.0 | 0.00 | 0.00 | 0.00 | 56 | 966.7 |
| 20260831013428 | 77 | 205 | 1.0 | 5.0 | 0.00 | 0.00 | 0.00 | 55 | 966.6 |
| 20260831011257 | 77 | 214 | 2.0 | 5.0 | 0.00 | 0.00 | 0.00 | 56 | 966.7 |
| 20260831010316 | 77 | 221 | 2.0 | 6.0 | 0.00 | 0.00 | 0.00 | 57 | 966.6 |
| 20260831005335 | 77 | 205 | 1.0 | 7.0 | 0.00 | 0.00 | 0.00 | 58 | 966.7 |
| 20260831004327 | 77 | 229 | 1.0 | 7.0 | 0.00 | 0.00 | 0.00 | 59 | 966.7 |
| 20260831003301 | 79 | 171 | 1.0 | 7.0 | 0.00 | 0.00 | 0.00 | 54 | 966.7 |
| 20260831001203 | 81 | 205 | 3.0 | 9.0 | 0.00 | 0.00 | 0.00 | 51 | 966.7 |
| 20260830233911 | 84 | 200 | 1.0 | 6.0 | 0.00 | 0.00 | 0.00 | 40 | 966.8 |
| 20260830232933 | 84 | 239 | 2.0 | 5.0 | 0.00 | 0.00 | 0.00 | 41 | 966.7 |
| 20260830230817 | 85 | 214 | 1.0 | 6.0 | 0.00 | 0.00 | 0.00 | 38 | 966.9 |
| 20260830225839 | 85 | 211 | 1.0 | 6.0 | 0.00 | 0.00 | 0.00 | 37 | 966.9 |
| 20260830224844 | 84 | 173 | 1.0 | 6.0 | 0.00 | 0.00 | 0.00 | 42 | 967.0 |
| 20260830223840 | 84 | 165 | 2.0 | 7.0 | 0.00 | 0.00 | 0.00 | 45 | 967.3 |
| 20260830222855 | 84 | 191 | 2.0 | 7.0 | 0.00 | 0.00 | 0.00 | 46 | 967.3 |
| 20260830221917 | 85 | 123 | 2.0 | 7.0 | 0.00 | 0.00 | 0.00 | 45 | 967.5 |
| 20260830220921 | 85 | 240 | 1.0 | 6.0 | 0.00 | 0.00 | 0.00 | 45 | 967.5 |
| 20260830215902 | 84 | 288 | 2.0 | 7.0 | 0.00 | 0.00 | 0.00 | 45 | 967.7 |
| 20260830214832 | 84 | 249 | 2.0 | 9.0 | 0.00 | 0.00 | 0.00 | 46 | 967.9 |
| 20260830213857 | 85 | 238 | 2.0 | 9.0 | 0.00 | 0.00 | 0.00 | 47 | 967.9 |
| 20260830212825 | 85 | 263 | 3.0 | 9.0 | 0.00 | 0.00 | 0.00 | 47 | 968.0 |
| 20260830211754 | 85 | 255 | 2.0 | 9.0 | 0.00 | 0.00 | 0.00 | 48 | 968.0 |